FW2442 Weather Reports


time (UTC)temp
C
wind
direction
speed
KPH
gust
KPH
rain 1hr
cm
rain 24hr
cm
rain mn
cm
humidity
%
barometer
mb
20260503225524 11 199 0.0 4.8 0.00 0.00 0.00 52 1017.6
20260503224524 11 0.0 0.0 0.00 0.00 0.00 52 1017.7
20260503223527 11 0.0 0.0 0.00 0.00 0.00 52 1017.8
20260503222526 11 0.0 0.0 0.00 0.00 0.00 53 1017.8
20260503221606 11 200 0.0 3.2 0.00 0.00 0.00 52 1017.8
20260503220522 11 0.0 0.0 0.00 0.00 0.00 52 1017.9
20260503215544 11 0.0 0.0 0.00 0.00 0.00 53 1017.9
20260503214522 11 0.0 0.0 0.00 0.00 0.00 51 1017.9
20260503213522 12 0.0 0.0 0.00 0.00 0.00 50 1018.1
20260503212524 11 0.0 0.0 0.00 0.00 0.00 51 1018.1
20260503211528 11 0.0 0.0 0.00 0.00 0.00 52 1018.1
20260503210604 11 0.0 0.0 0.00 0.00 0.00 54 1018.1
20260503205524 11 0.0 0.0 0.00 0.00 0.00 55 1018.3
20260503204544 11 0.0 0.0 0.00 0.00 0.00 55 1018.3
20260503203523 11 0.0 0.0 0.00 0.00 0.00 52 1018.4
20260503202544 11 0.0 0.0 0.00 0.00 0.00 52 1018.4
20260503201522 11 0.0 0.0 0.00 0.00 0.00 52 1018.4
20260503200525 11 0.0 0.0 0.00 0.00 0.00 52 1018.5
20260503195524 11 0.0 0.0 0.00 0.00 0.00 53 1018.5
20260503194542 11 0.0 0.0 0.00 0.00 0.00 52 1018.6
20260503193524 11 0.0 0.0 0.00 0.00 0.00 52 1018.7
20260503192524 12 0.0 0.0 0.00 0.00 0.00 52 1018.8
20260503191544 12 0.0 0.0 0.00 0.00 0.00 50 1018.7
20260503190523 12 0.0 0.0 0.00 0.00 0.00 50 1018.7
20260503185523 12 0.0 0.0 0.00 0.00 0.00 51 1018.7
20260503184524 12 0.0 0.0 0.00 0.00 0.00 51 1018.8
20260503183523 12 0.0 0.0 0.00 0.00 0.00 50 1018.7
20260503182603 12 291 0.0 1.6 0.00 0.00 0.00 50 1018.6
20260503181544 12 0.0 0.0 0.00 0.00 0.00 50 1018.6
20260503180544 12 0.0 0.0 0.00 0.00 0.00 50 1018.6
20260503175543 13 0.0 0.0 0.00 0.00 0.00 50 1018.6
20260503174523 13 0.0 0.0 0.00 0.00 0.00 49 1018.6
20260503173544 13 0.0 0.0 0.00 0.00 0.00 48 1018.5
20260503172524 14 0.0 0.0 0.00 0.00 0.00 47 1018.6
20260503171523 14 0.0 0.0 0.00 0.00 0.00 46 1018.6
20260503170522 15 0.0 0.0 0.00 0.00 0.00 46 1018.8
20260503150524 15 289 3.2 3.2 0.00 0.00 0.00 40 1019.4
20260503130544 16 254 1.6 3.2 0.00 0.00 0.00 35 1020.7
20260503110523 16 313 4.8 9.7 0.00 0.00 0.00 35 1021.9
20260503081524 14 318 3.2 11.3 0.00 0.00 0.00 35 1023.7
20260503080524 14 305 1.6 9.7 0.00 0.00 0.00 37 1023.9
20260503072524 13 185 1.6 4.8 0.00 0.00 0.00 46 1024.1
20260503071545 13 225 3.2 6.4 0.00 0.00 0.00 48 1024.2
20260503070523 13 184 1.6 4.8 0.00 0.00 0.00 50 1024.1
20260503054524 10 205 0.0 3.2 0.00 0.00 0.00 60 1024.3
20260503053544 9 192 0.0 3.2 0.00 0.00 0.00 60 1024.2
20260503052524 8 189 0.0 1.6 0.00 0.00 0.00 60 1024.3
20260503051524 8 0.0 1.6 0.00 0.00 0.00 59 1024.3
20260503050524 8 0.0 0.0 0.00 0.00 0.00 60 1024.2
20260503045525 8 0.0 0.0 0.00 0.00 0.00 62 1024.2
20260503044544 7 0.0 0.0 0.00 0.00 0.00 62 1024.2
20260503043544 7 0.0 0.0 0.00 0.00 0.00 65 1024.1
20260503042547 6 0.0 0.0 0.00 0.00 0.00 63 1024.2
20260503041545 6 0.0 0.0 0.00 0.00 0.00 64 1024.1
20260503040605 6 0.0 0.0 0.00 0.00 0.00 64 1024.0
20260503035523 5 0.0 0.0 0.00 0.00 0.00 66 1024.0
20260503034525 5 0.0 0.0 0.00 0.00 0.00 68 1023.9
20260503033524 3 0.0 0.0 0.00 0.00 0.00 70 1024.0
20260503032524 3 0.0 0.0 0.00 0.00 0.00 72 1023.9
20260503031524 2 0.0 0.0 0.00 0.00 0.00 72 1023.9
20260503030523 2 0.0 0.0 0.00 0.00 0.00 71 1023.8
20260503025524 3 0.0 0.0 0.00 0.00 0.00 70 1023.7
20260503024525 3 0.0 0.0 0.00 0.00 0.00 68 1023.7
20260503023526 3 0.0 0.0 0.00 0.00 0.00 67 1023.6
20260503022524 3 0.0 0.0 0.00 0.00 0.00 67 1023.6
20260503021526 3 0.0 0.0 0.00 0.00 0.00 66 1023.6
20260503020526 3 0.0 0.0 0.00 0.00 0.00 66 1023.6
20260503015524 4 0.0 0.0 0.00 0.00 0.00 65 1023.6
20260503014524 5 0.0 0.0 0.00 0.00 0.00 62 1023.6
20260503013544 5 0.0 0.0 0.00 0.00 0.00 60 1023.6
20260503012524 5 0.0 0.0 0.00 0.00 0.00 59 1023.6
20260503011524 5 0.0 0.0 0.00 0.00 0.00 59 1023.7
20260503010524 6 0.0 0.0 0.00 0.00 0.00 59 1023.6
20260503005524 5 0.0 0.0 0.00 0.00 0.00 60 1023.7
20260503004524 5 0.0 0.0 0.00 0.00 0.00 61 1023.6
20260503003525 5 0.0 0.0 0.00 0.00 0.00 60 1023.6
20260503002524 6 0.0 0.0 0.00 0.00 0.00 59 1023.6
20260503001524 6 0.0 0.0 0.00 0.00 0.00 58 1023.7
20260503000525 6 0.0 0.0 0.00 0.00 0.00 59 1023.7
20260502235524 6 0.0 0.0 0.00 0.00 0.00 59 1023.7
20260502234524 5 0.0 0.0 0.00 0.00 0.00 60 1023.8
20260502233524 5 0.0 0.0 0.00 0.00 0.00 60 1023.8
20260502232525 5 0.0 0.0 0.00 0.00 0.00 61 1023.8
20260502231525 6 0.0 0.0 0.00 0.00 0.00 60 1023.9
20260502230524 6 0.0 0.0 0.00 0.00 0.00 60 1024.0